Погода в Ейске

Погода в Ейске : погода сейчас, прогноз погоды и архив. Всё, что Вы хотите узнать о погоде в Ейске!

Хотите узнать прогноз погоды в Ейске? Тогда Вам сюда: Погода в Ейске

Поиск расширенной информации на нашем сайте:

Другие новости

Новости СМИ2

Главная страница сайта

Новости сайта

02.10.2013

Напоминаем, что на нашем новом сайте вы можете получить высокодетализированные прогнозы погоды по пунктам России, СНГ и мира (включающие важные для авиации метеовеличины, такие как направление и скорость ветра, видимость, явления погоды, количество и форма облачности, нижняя и верхняя граница облачности), а также ознакомиться с разнообразными материалами по авиационной метеорологии и подборкой полезных ссылок на эту тему.

Сайт Метеоцентр.Азия посвящён разработке технологий оптимизации авиаметеорологического обслуживания, включая проектирование и перспективное создание нескольких автоматизированных авиаметеорологических систем:
- система выпуска высокодетальных прогностических карт явлений погоды для нижнего воздушного пространства по России и ближнему зарубежью;
- система верификации прогнозов TAF (выпускаемых синоптиками официальных АМСГ РФ и ближнего зарубежья) и AUTOTAF (выпускаемых сайтом Метеоцентр.Азия) - выявление ошибок, онлайн-сопоставление с фактической погодой METAR, автоматическое внесение коррективов в прогнозы при резком отклонении фактической погоды от прогноза, подсчёт оправдываемости прогнозов по элементам и в целом;
- система обработки, анализа и отображения авиаметеорологической информации для применения провайдерами метеорологической информации.


Погода в Ейске - сегодня

Время (UTC), дата Ветер
(°,м/с) 
Видим.   Явления Облачность Т
(°С)
Тd
(°С)
f(%) Тe
(°С)
Pmin
(гПа)
dP
(гПа)
Po
(мм)
O2
(г/м3)
Тmin Tmax R s Состояние
почвы
09 18.01.17 060 (СВ) 7-13{14}  10 км    10/10 300 м 
[Sc diur, vesp]
-0.8 -1.9 92 -5  1030.6  1.1  771  312           
12 18.01.17 070 (В) 7-13{14}  10 км    10/10 300 м 
[Sc diur, vesp]
-1.1 -2.5 90 -5  1030.6  771  312           
15 18.01.17 070 (В) 7-13{15}  10 км    10/10 300 м 
[Sc diur, vesp]
-1.5 -3.5 86 -6  1032.2  1.6  772  313    +0       
18 18.01.17 070 (В) 7-13{13}  10 км    10/10 300 м 
[Sc diur, vesp]
-1.9 -4.3 84 -6  1033.1  0.9  773  314           
21 18.01.17 070 (В) 7-11{13}  10 км    10/10 300 м 
[Sc diur, vesp]
-2.3 -4.9 82 -7  1033.4  0.3  773  315           
00 19.01.17 060 (СВ) 7-12{13}  10 км    10/10 300 м 
[Sc diur, vesp]
-3.4 -5.6 85 -8  1033.8  0.4  773  316           
03 19.01.17 060 (СВ) 6-10{12}  10 км    10/10 300 м 
[Sc diur, vesp]
-4 -6.2 85 -8  1034.6  0.8  774  317  -4.1         
06 19.01.17 070 (В) 5-10{11}  10 км    10/10 300 м 
[Sc diur, vesp]
-4.6 -7 83 -8  1035.7  1.1  774  318  -4.7         
09 19.01.17 090 (В) 5{10}  10 км    10/8 300 м средняя 
[Sc diur, vesp|Ac trans]
-4.3 -8.3 74 -8  1035.9  0.3  775  318           
12 19.01.17 070 (В) 4000 м  слаб. ливневой снег  10/10 300 м кучево-дожд. 
[Cb calv]
-4.3 -7.2 80 -8  1035.3  -0.6  774  318           
15 19.01.17 060 (СВ) 4{10}  10 км  {ливн. осадки}  10/10 300 м 
[Sc diur, vesp]
-4.2 -7.1 80 -7  1035.4  0.1  774  318    -3.9  0.0     
18 19.01.17 080 (В) 10 км  {ливн. осадки}  10/10 300 м 
[Sc diur, vesp]
-4.9 -7.6 81 -7  1035.3  0.1  774  318           
21 19.01.17 080 (В) 10 км    10/10 300 м 
[Sc diur, vesp]
-5.1 -7.5 83 -7  1034.9  -0.4  774  319           
00 20.01.17 040 (СВ) 10 км    10/10 300 м 
[Sc diur, vesp]
-5.3 -7.5 84 -8  1034.3  -0.6  773  319           
03 20.01.17 040 (СВ) 10 км    10/10 300 м 
[Sc diur, vesp]
-6.2 -8.3 85 -8  1033.2  -1.1  773  319  -6.3         
06 20.01.17 280 (З) 10 км    10/10 300 м 
[Sc]
-6.8 -8.7 86 -8  1032.8  -0.3  772  320  -6.8         
09 20.01.17 290 (З) 4000 м  дымка{ливн. осадки}  8/8 300 м 
[Sc diur, vesp]
-6.1 -8.1 86 -9  1032.2  -0.3  772  319           
12 20.01.17 270 (З) 10 км  {ливн. осадки}  4/4 300 м 
[Sc diur, vesp]
-5 -7 86 -9  1029.7  -2.5  770  317           
15 20.01.17 260 (З) 10 км    10/10 300 м 
[Sc diur, vesp]
-5.1 -6.5 90 -10  1028.3  -1.5  769  316    -4.6  0.0     
18 20.01.17 260 (З) 8-11{11}  10 км    10/10 300 м 
[Sc diur, vesp]
-2.6 -4.7 85 -7  1027.2  -1  768  313           
21 20.01.17 290 (З) 8-11{14}  10 км    10/10 600 м 
[Sc diur, vesp]
-3.2 -6.2 80 -8  1027.2  768  314           
00 21.01.17 280 (З) 7-10{11}  10 км    10/10 300 м 
[Sc diur, vesp]
-3.3 -5 88 -8  1026.1  -1.2  767  313           
03 21.01.17 280 (З) 6{10}  4000 м  слаб. ливневой снег  10/10 300 м кучево-дожд. 
[Cb calv]
-3.4 -4.2 94 -8  1024.7  -1.3  766  313  -6    0.0     
06 21.01.17 270 (З) 1000 м  ливневой снег  10/10 300 м кучево-дожд. 
[Cb calv]
-3 -3.5 96 -7  1024.8  0.1  766  313           
09 21.01.17 280 (З) 2000 м  слаб. ливневой дождь [диам. гололёда 1 мм]  10/10 300 м кучево-дожд. 
[Cb calv]
-2.3 -2.7 97 -6  1024.4  -0.4  766  312           
Время (UTC), дата Ветер
(°,м/с) 
Видим.   Явления Облачность Т
(°С)
Тd
(°С)
f(%) Тe
(°С)
Pmin
(гПа)
dP
(гПа)
Po
(мм)
O2
(г/м3)
Тmin Tmax R s Состояние
почвы

Для получения пояснительной информации подведите курсор к названию столбца.

ПОГОДА в Ейске - архив

Всё, что Вы хотите узнать о погоде в Ейске - удобно и подробно!

Выберите нужную дату (начиная с 1 января 2015* года) и нажмите кнопку "Найти".
Будут отображены архивные сводки погоды по пункту Ейск, начиная с указанной даты.


Отображать данные в формате CSV (для использования в таблицах Excel)


Внимание! Наш архив погоды предназначен исключительно для личного некоммерческого использования в познавательных целях. Если Вам необходимы официальные справки о состоянии погоды (для производственных, юридических, коммерческих и т.п. целей), обращайтесь в органы Росгидромета.

*Примечание: данная дата относится к архиву по метеостанциям СССР (Россия, СНГ, Балтия).
Архив по метеостанциям Зарубежной Европы и Азии (кроме Китая) хранится 10 дней, по другим регионам земного шара (Китай, Африка, Америка, Австралия, Океания) - 1 день.

Ейск - район местоположения метеостанции


Название, широта, долгота, высота метеостанции:
Ейск 46.8°ш. 38.3°д. 3 м над ур. моря [Российская Федерация]

Дополнительная информация

В oтличие oт бoльшинства пoгoдных сайтoв мы публикуем пoдрoбную метеoинфoрмацию в детальнoм прoфессиoнальнoм фoрмате.

Характеристики температуры и влажнoсти вoздуха измеряются на высoте 2 м в тени вдали oт зданий и деревьев.
Скoрoсть ветра измеряется на высoте 10 м (на урoвне рoста челoвека скoрoсть ветра ниже в 1.5-2 раза). Если метеoстанция нахoдится в гoрoде или в лесу, тo скoрoсть ветра занижена на 2-4 м/с пo сравнению с oткрытым местoм. Скoрoсть ветра над акватoриями крупных рек и oзёр, а также на вершинах хoлмoв на 2-5 м/с выше, чем в oбычных услoвиях.
Атмoсфернoе давление в разных тoчках местнoсти мoжет значительнo oтличаться oт давления на метеoстанции, в зависимoсти oт услoвий рельефа (при пoдъёме на 10 м давление пoнижается примернo на 1 мм рт.ст.).